Location: Stara Lesna
(49.1528°N, 20.2911°E)
Time: 03:26:19
(UTC+02:00)

ADEOS II - Pass Details

Date: 21 September 2019
Orbit: 799 x 801 km, 98.5° (Epoch: 12 October)

Event Time Altitude Azimuth Distance (km) Brightness Sun altitude
Rises 03:21:38 0° 15° (NNE) 3,320 6.1 -28.1°
Reaches altitude 10° 03:23:59 10° 16° (NNE) 2,385 5.2 -27.8°
Maximum altitude 03:29:16 81° 105° (ESE) 816 2.0 -27.2°
Enters shadow 03:29:29 79° 141° (SE) 821 2.0 -27.1°
